Ketchikan, AK

8:19 AM AKDT on October 16, 2018 (GMT -0800)
Ketchikan International

Weather History for PAKT - September, 2018

Change the Weather History Date:

Sunday, September 9, 2018

  Actual Average Record
Temperature  
Mean Temperature 56 °F -  
Max Temperature 62 °F 60 °F 73 °F (1989)
Min Temperature 51 °F 48 °F 37 °F (2004)
Degree Days  
Heating Degree Days 8    
Growing Degree Days 6 (Base 50)    
Moisture  
Dew Point 52 °F    
Average Humidity 88    
Maximum Humidity 94    
Minimum Humidity 75    
Precipitation  
Precipitation 0.12 in - - ()
Sea Level Pressure  
Sea Level Pressure 29.66 in    
Wind  
Wind Speed 3 mph (North)    
Max Wind Speed 9 mph    
Max Gust Speed -    
Visibility 10 miles    
Events Rain    
Averages and records for this station are not official NWS values.
T = Trace of Precipitation, MM = Missing Value Source: NWS Daily Summary

Daily Weather History Graph

Daily Weather History Graph

Search for Another Location

Airport or City:

Astronomy

Sep. 09, 2018 Rise Set
Actual Time 6:07 AM AKDT 7:18 PM AKDT
Civil Twilight 5:30 AM AKDT 7:56 PM AKDT
Nautical Twilight 4:44 AM AKDT 8:42 PM AKDT
Astronomical Twilight 3:53 AM AKDT 9:32 PM AKDT
Moon 5:46 AM AKDT (9/9) 7:46 PM AKDT (9/9)
Length of Visible Light 14h 25m
Length of Day
13h 10m
New Moon, 0% of the Moon is Illuminated
Sep 9
New Moon
Sep 16
First Quarter
Sep 24
Full
Oct 2
Last Quarter
Oct 8
New

Hourly Weather History & Observations

Time (AKDT) Temp. Dew Point Humidity Pressure Visibility Wind Dir Wind Speed Gust Speed Precip Events Conditions
12:53 AM 53.1 °F 51.1 °F 93% 29.73 in 10.0 mi Calm Calm - N/A   Clear
1:53 AM 52.0 °F 50.0 °F 93% 29.69 in 10.0 mi Calm Calm - N/A   Overcast
2:53 AM 54.0 °F 51.1 °F 90% 29.66 in 10.0 mi Variable 4.6 mph - N/A   Overcast
3:53 AM 54.0 °F 51.1 °F 90% 29.65 in 10.0 mi Calm Calm - 0.00 in Rain Light Rain
4:53 AM 55.0 °F 52.0 °F 89% 29.63 in 10.0 mi Variable 3.5 mph - 0.00 in Rain Light Rain
5:53 AM 54.0 °F 52.0 °F 93% 29.64 in 10.0 mi SE 3.5 mph - 0.02 in Rain Light Rain
6:12 AM 55.4 °F 51.8 °F 88% 29.63 in 8.0 mi Calm Calm - N/A Rain Light Rain
6:53 AM 53.6 °F 51.8 °F 94% 29.64 in 10.0 mi SSW 3.5 mph - N/A Rain Light Rain
7:53 AM 55.4 °F 53.6 °F 94% 29.65 in 10.0 mi ESE 3.5 mph - N/A   Overcast
8:53 AM 55.4 °F 53.6 °F 94% 29.64 in 10.0 mi NW 3.5 mph - N/A   Overcast
9:53 AM 57.2 °F 53.6 °F 88% 29.65 in 9.0 mi ESE 3.5 mph - N/A Rain Light Rain
10:53 AM 57.0 °F 53.1 °F 87% 29.66 in 6.0 mi Calm Calm - 0.04 in Rain Light Rain
11:04 AM 57.0 °F 54.0 °F 89% 29.65 in 10.0 mi Calm Calm - 0.00 in Rain Light Rain
11:53 AM 57.9 °F 54.0 °F 87% 29.65 in 10.0 mi NE 3.5 mph - 0.00 in   Overcast
12:53 PM 60.1 °F 54.0 °F 80% 29.67 in 10.0 mi NE 3.5 mph - N/A   Mostly Cloudy
1:53 PM 62.1 °F 55.0 °F 78% 29.68 in 10.0 mi East 5.8 mph - 0.00 in   Overcast
2:53 PM 60.1 °F 52.0 °F 75% 29.69 in 10.0 mi SSE 5.8 mph - 0.01 in Rain Light Rain
3:53 PM 59.0 °F 53.1 °F 81% 29.69 in 10.0 mi Calm Calm - 0.03 in Rain Light Rain
4:53 PM 57.9 °F 54.0 °F 87% 29.68 in 10.0 mi Calm Calm - 0.02 in Rain Light Rain
5:53 PM 55.4 °F 53.6 °F 94% 29.67 in 10.0 mi WNW 9.2 mph - N/A Rain Light Rain
6:53 PM 55.4 °F 51.8 °F 88% 29.66 in 10.0 mi NW 6.9 mph - N/A   Overcast
7:53 PM 55.4 °F 51.8 °F 88% 29.66 in 10.0 mi NW 5.8 mph - N/A   Mostly Cloudy
8:53 PM 55.4 °F 50.0 °F 82% 29.66 in 10.0 mi NW 8.1 mph - N/A   Partly Cloudy
9:53 PM 54.0 °F 50.0 °F 86% 29.65 in 10.0 mi NNW 4.6 mph - N/A   Clear
10:53 PM 51.1 °F 48.0 °F 89% 29.65 in 10.0 mi NW 8.1 mph - N/A   Clear
11:53 PM 52.0 °F 50.0 °F 93% 29.65 in 10.0 mi NW 4.6 mph - N/A   Clear